Overview Statistics Trail Chart Weather Telemetry Raw packets
 

This is the latest recevied weather packets stored in our database for station/object KI6SYE. If no packets are shown the sender has not sent any weather packets the latest 10 day(s).

<< 15 16 17 18 19 20 21 >>
Time Temp. Humidity Pressure Rain* Wind** Luminosity Snow
1788570985 22.78° C 79% 1011.9 hPa 0 mm - 60 W/m² -
1788570680 22.78° C 79% 1011.9 hPa 0 mm - 59 W/m² -
1788570375 22.22° C 79% 1012.2 hPa 0 mm - 64 W/m² -
1788570071 22.78° C 79% 1012.3 hPa 0 mm - 88 W/m² -
1788569767 22.78° C 78% 1012.3 hPa 0 mm - 100 W/m² -
1788569461 22.78° C 78% 1012.2 hPa 0 mm - 111 W/m² -
1788569156 22.78° C 78% 1012.5 hPa 0 mm - 124 W/m² -
1788568855 22.78° C 77% 1012.3 hPa 0 mm - 136 W/m² -
1788568547 23.33° C 77% 1012.3 hPa 0 mm - 149 W/m² -
1788568243 22.78° C 77% 1012.5 hPa 0 mm - 163 W/m² -
1788567938 23.33° C 77% 1012.5 hPa 0 mm - 175 W/m² -
1788567638 22.78° C 77% 1012.3 hPa 0 mm - 190 W/m² -
1788567333 23.33° C 76% 1012.4 hPa 0 mm - 204 W/m² -
1788567026 22.78° C 77% 1012.4 hPa 0 mm - 219 W/m² -
1788566722 22.78° C 78% 1012.4 hPa 0 mm - 231 W/m² -
1788566418 23.33° C 78% 1012.3 hPa 0 mm - 250 W/m² -
1788566113 23.33° C 76% 1012.2 hPa 0 mm - 267 W/m² -
1788565812 23.33° C 77% 1012.3 hPa 0 mm - 281 W/m² -
1788565512 23.33° C 77% 1012.2 hPa 0 mm - 296 W/m² -
1788565209 23.33° C 77% 1012.3 hPa 0 mm - 313 W/m² -
1788564904 23.33° C 77% 1012.1 hPa 0 mm - 325 W/m² -
1788564600 23.33° C 77% 1012.2 hPa 0 mm - 341 W/m² -
1788564296 23.33° C 77% 1012.4 hPa 0 mm - 358 W/m² -
1788563987 23.33° C 76% 1012.2 hPa 0 mm - 373 W/m² -
1788563682 23.33° C 77% 1012.3 hPa 0 mm - 388 W/m² -

* Rain latest hour (hover to see other rain measurements)
** Current wind speed in m/s (hover to see current wind gust speed)